Regional Weather Roundup
Issued by NWS

Home | Current Version | Previous Version | Graphics & Text | Print | Product List | Glossary On
Versions: 1 2 3 4 5 6 7 8 9 10 11 12 13 14 15 16 17 18 19 20 21 22 23 24 25 26 27 28 29 30 31 32 33 34 35 36 37 38 39 40 41 42 43 44 45 46 47 48 49 50
222
ASUS44 KJAN 240010
RWRMS

MISSISSIPPI HOURLY WEATHER ROUNDUP
NATIONAL WEATHER SERVICE JACKSON MS
700 PM CDT WED APR 23 2014

NOTE: "FAIR: INDICATES FEW OR NO CLOUDS BELOW 12,000 FEET WITH NO
SIGNIFICANT WEATHER AND/OR OBSTRUCTIONS TO VISIBILITY.

MSZ001>002-007>008-010>013-018>021-025>028-034>036-240100-
NORTHWEST MISSISSIPPI

CITY           SKY/WX    TMP DP  RH WIND       PRES   REMARKS
CLARKSDALE       N/A     75  41  29 CALM      29.92S
CLEVELAND      FAIR      75  45  34 CALM      29.91S
GREENWOOD      CLEAR     73  47  39 N6        29.91S
6HR MIN TEMP:  73; 6HR MAX TEMP:  80;

GREENVILLE     CLEAR     77  42  28 E5        29.91S
6HR MIN TEMP:  75; 6HR MAX TEMP:  80;

GRENADA        FAIR      72  45  37 E3        29.92S
OLIVE BRANCH   PTCLDY    73  37  27 CALM      29.93F
OXFORD         LGT RAIN  72  39  30 E5        29.94F
TUNICA         CLEAR     73  37  27 E5        29.93S
$$

MSZ003>006-009-014>017-022>024-029>033-037>039-240100-
NORTHEAST MISSISSIPPI

CITY           SKY/WX    TMP DP  RH WIND       PRES   REMARKS
BELMONT        FAIR      72  38  29 CALM      29.95R
COLUMBUS AFB   CLEAR     75  43  31 NW5       29.92S
6HR MIN TEMP:  74; 6HR MAX TEMP:  79;

CORINTH        FAIR      72  36  26 NE3       29.94S
GOLDN TRIANGLE CLEAR     75  43  31 NE5       29.94F
STARKVILLE     FAIR      72  41  33 CALM      29.92S
TUPELO         CLEAR     74  36  25 E5        29.93R
6HR MIN TEMP:  72; 6HR MAX TEMP:  78;

$$

MSZ040-058-240100-
CENTRAL MISSISSIPPI

CITY           SKY/WX    TMP DP  RH WIND       PRES   REMARKS
JACKSON INTL   CLEAR     77  48  35 N5        29.89F
6HR MIN TEMP:  77; 6HR MAX TEMP:  82;

JACKSON HAWKNS CLEAR     79  45  29 NE3       29.90S
6HR MIN TEMP:  77; 6HR MAX TEMP:  82;

MERIDIAN KEY   CLEAR     74  51  44 N3        29.90S
6HR MIN TEMP:  74; 6HR MAX TEMP:  81;

MERIDIAN NAS   CLEAR     76  44  32 NE5       29.91S
6HR MIN TEMP:  76; 6HR MAX TEMP:  81;

RAYMOND        FAIR      73  68  83 CALM      29.90R
VICKSBURG      CLEAR     78  45  30 N3        29.89S
6HR MIN TEMP:  78; 6HR MAX TEMP:  82;

$$

MSZ059>079-240100-
SOUTH MISSISSIPPI

CITY           SKY/WX    TMP DP  RH WIND       PRES   REMARKS
BROOKHAVEN     FAIR      77  54  44 CALM      29.91S
HATTIESBURG    CLEAR     75  60  59 CALM      29.89S
6HR MIN TEMP:  75; 6HR MAX TEMP:  85;

MCCOMB         CLEAR     81  47  30 CALM      29.89S
6HR MIN TEMP:  79; 6HR MAX TEMP:  83;

NATCHEZ        CLEAR     77  46  33 N3        29.89F
6HR MIN TEMP:  77; 6HR MAX TEMP:  81;

PINE BELT      CLEAR     75  61  60 CALM      29.91S
6HR MIN TEMP:  75; 6HR MAX TEMP:  82;

$$

MSZ080>082-240100-
COASTAL MISSISSIPPI

CITY           SKY/WX    TMP DP  RH WIND       PRES   REMARKS
BAY ST LOUIS   CLEAR     77  57  50 S5        29.89S
BILOXI         PTCLDY    73  66  78 SW9       29.90S
6HR MIN TEMP:  73; 6HR MAX TEMP:  78;

PASCAGOULA     CLEAR     73  65  75 SW3       29.90S
6HR MIN TEMP:  73; 6HR MAX TEMP:  80;

GULFPORT       CLEAR     77  63  61 VRB3      29.89S
6HR MIN TEMP:  77; 6HR MAX TEMP:  81;

$$



USA.gov is the U.S. government's official web portal to all federal, state and local government web resources and services.